星链-5834 (STARLINK-5834 )

导读 | 星芒AI

STARLINK-5834 是 SpaceX Starlink 项目中的一颗低轨通信卫星,属于第二代 Starlink 卫星(Gen2)批次。该卫星于2023年发射,旨在为全球提供高速、低延迟的互联网服务。它运行在约550公里高度的近地轨道,采用先进通信技术,支持更广覆盖和更高带宽。Starlink 卫星群致力于改善偏远地区的网络接入,推动全球互联网普及。STARLINK-5834 在提升网络性能和系统稳定性方面发挥着重要作用。

基本信息
目录编号:
57071
目录名称:
STARLINK-5834
国际标识:
2023-088Z
轨道中心:
EARTH
卫星名称:
星链-5834
卫星全名:
星链-5834 (STARLINK-5834 )
卫星状态:
在轨 (已飞行866 天)
发射日期:
2023-06-22 UTC
国别 :
美国 (US)
星等 :
--
轨道信息
数据来源 国际轨道数据
星历时间: 2025-11-04T08:55:23+0800
11小时前
查看轨道信息
半长轴: 6937.202km
偏心率: 0.0001195
轨道倾角: 43.005°
近地点辐角 264.168°
升交点赤经 57.641°
平近点角 95.903°
近地点: 558.238km
远地点: 559.896km
周期: 95.838分钟
每日圈数: 15.025408
详细信息
固有亮度:
5
最大亮度:
2.4
卫星平台:
Starlink v1.5
覆盖范围:
全球
运营商:
太空探索技术公司
运营商所在国:
美国
制造商(研发单位):
太空探索技术公司
制造商所在国:
美国
使用方式:
暂无
卫星简介
星链(Starlink)计划是由太空探索技术公司(SpaceX)提出的一个巨型低轨卫星互联网星座项目,计划在2019年至2024年间在太空搭建由约1.2万颗卫星组成的“星链”网络,其中1584颗将部署在地球上空550千米处的近地轨道,并从2020年开始工作。该卫星仍在工作。
2D轨道图
3D轨道图
轨道高度分析图
轨道倾角分析图
轨道综合分析图
查看轨道综合分析图